Location: Gorze? G�rny
(49.8500°N, 19.5000°E)
Time: 03:47:33
(UTC+00:00)

Cosmos 1536 - Pass Details

Date: 13 May 2021
Orbit: 539 x 559 km, 82.5° (Epoch: 23 June)

Event Time Altitude Azimuth Distance (km) Brightness Sun altitude
Rises 20:54:38 0° 344° (NNW) 2,747 8.0 -17.8°
Reaches altitude 10° 20:56:54 10° 337° (NNW) 1,844 6.8 -18.0°
Maximum altitude 21:00:43 41° 267° (W) 810 3.8 -18.2°
Enters shadow 21:02:33 25° 214° (SSW) 1,131 4.1 -18.3°
